Middletown, PA

8:50 PM EDT on April 27, 2017 (GMT -0400)
Harrisburg International

Weather History for KMDT - January, 2013

Change the Weather History Date:

Wednesday, January 9, 2013

  Actual Average Record
Temperature  
Mean Temperature 30 °F 30 °F  
Max Temperature 38 °F 37 °F 64 °F (1998)
Min Temperature 21 °F 23 °F -3 °F (1942)
Degree Days  
Heating Degree Days 35 35  
Month to date heating degree days 298 312  
Since 1 July heating degree days 2170 2313  
Cooling Degree Days 0 0  
Month to date cooling degree days 0 0  
Year to date cooling degree days 0 0  
Moisture  
Dew Point 26 °F    
Average Humidity 91    
Maximum Humidity 100    
Minimum Humidity 82    
Precipitation  
Precipitation T in 0.09 in 1.39 in (1964)
Month to date precipitation T 0.82  
Year to date precipitation T 0.82  
Snow  
Snow 0.00 in 0.20 in 6.50 in (1926)
Month to date snowfall 0.0 2.1  
Since 1 July snowfall 7.5 7.8  
Snow Depth 0.00 in    
Sea Level Pressure  
Sea Level Pressure 30.31 in    
Wind  
Wind Speed 2 mph (NNW)    
Max Wind Speed 9 mph    
Max Gust Speed 10 mph    
Visibility 4 miles    
Events Rain    
T = Trace of Precipitation, MM = Missing Value Source: NWS Daily Summary

Daily Weather History Graph

Daily Weather History Graph

Search for Another Location

Airport or City:

Trip Planner

Search our weather history database for the weather conditions in past years. The results will help you decide how hot, cold, wet, or windy it might be!

Date:

Astronomy

Jan. 09, 2013 Rise Set
Actual Time 7:29 AM EST 4:59 PM EST
Civil Twilight 6:59 AM EST 5:29 PM EST
Nautical Twilight 6:25 AM EST 6:03 PM EST
Astronomical Twilight 5:52 AM EST 6:36 PM EST
Moon 5:06 AM EST (1/9) 2:59 PM EST (1/9)
Length of Visible Light 10h 30m
Length of Day
9h 30m
Waning Crescent, 6% of the Moon is Illuminated
Jan 9
Waning Crescent
Jan 11
New
Jan 18
First Quarter
Jan 26
Full
Feb 3
Last Quarter

Hourly Weather History & Observations

Time (EST) Temp. Windchill Dew Point Humidity Pressure Visibility Wind Dir Wind Speed Gust Speed Precip Events Conditions
12:56 AM 25.0 °F - 21.9 °F 88% 30.38 in 5.0 mi Calm Calm - N/A   Clear
1:56 AM 21.0 °F - 21.0 °F 100% 30.38 in 4.0 mi Calm Calm - N/A   Clear
2:56 AM 23.0 °F - 21.0 °F 92% 30.37 in 5.0 mi Calm Calm - N/A   Partly Cloudy
3:56 AM 21.9 °F - 19.9 °F 92% 30.37 in 4.0 mi Calm Calm - N/A   Partly Cloudy
4:56 AM 23.0 °F - 21.0 °F 92% 30.36 in 4.0 mi Calm Calm - N/A   Partly Cloudy
5:56 AM 23.0 °F - 21.0 °F 92% 30.36 in 4.0 mi Calm Calm - N/A   Mostly Cloudy
6:56 AM 23.0 °F - 21.0 °F 92% 30.37 in 4.0 mi Calm Calm - N/A   Mostly Cloudy
7:27 AM 24.8 °F - 21.2 °F 86% 30.35 in 2.5 mi Calm Calm - N/A   Overcast
7:56 AM 25.0 °F - 23.0 °F 92% 30.38 in 2.5 mi Calm Calm - N/A   Overcast
8:56 AM 28.0 °F - 25.0 °F 88% 30.36 in 2.5 mi Calm Calm - N/A   Overcast
10:56 AM 33.1 °F - 28.0 °F 82% 30.35 in 3.0 mi Calm Calm - N/A   Haze
11:56 AM 33.1 °F 28.7 °F 28.9 °F 85% 30.33 in 3.0 mi WNW 4.6 mph - N/A   Overcast
12:03 PM 33.8 °F 28.6 °F 28.4 °F 81% 30.32 in 2.5 mi WNW 5.8 mph - N/A   Haze
12:49 PM 33.8 °F - 30.2 °F 87% 30.28 in 3.0 mi Calm Calm - N/A   Overcast
12:56 PM 35.1 °F - 30.0 °F 82% 30.28 in 3.0 mi Calm Calm - 0.00 in Rain Light Rain
1:14 PM 33.8 °F 28.6 °F 30.2 °F 87% 30.23 in 2.5 mi SSE 5.8 mph - 0.00 in   Overcast
1:56 PM 35.1 °F 32.2 °F 30.9 °F 85% 30.23 in 3.0 mi East 3.5 mph - 0.00 in   Overcast
2:56 PM 36.0 °F 31.1 °F 32.0 °F 86% 30.23 in 3.0 mi NW 5.8 mph - N/A   Overcast
3:56 PM 37.0 °F 34.5 °F 32.0 °F 82% 30.22 in 3.0 mi WNW 3.5 mph - N/A   Mostly Cloudy
4:56 PM 36.0 °F 33.3 °F 32.0 °F 86% 30.24 in 3.0 mi West 3.5 mph - N/A   Mostly Cloudy
5:56 PM 32.0 °F - 28.9 °F 88% 30.26 in 6.0 mi Calm Calm - N/A   Partly Cloudy
6:56 PM 32.0 °F 27.5 °F 30.0 °F 92% 30.27 in 6.0 mi NE 4.6 mph - N/A   Partly Cloudy
7:56 PM 30.0 °F - 27.0 °F 88% 30.29 in 6.0 mi Calm Calm - N/A   Partly Cloudy
8:56 PM 27.0 °F 23.0 °F 25.0 °F 92% 30.30 in 6.0 mi East 3.5 mph - N/A   Partly Cloudy
9:56 PM 28.0 °F - 26.1 °F 92% 30.29 in 6.0 mi Calm Calm - N/A   Partly Cloudy
10:56 PM 30.9 °F 27.5 °F 27.0 °F 85% 30.31 in 6.0 mi East 3.5 mph - N/A   Partly Cloudy
11:56 PM 32.0 °F 27.5 °F 26.1 °F 79% 30.34 in 10.0 mi NW 4.6 mph - N/A   Partly Cloudy